FW6081 Weather Reports


time (UTC)temp
C
wind
direction
speed
KPH
gust
KPH
rain 1hr
cm
rain 24hr
cm
rain mn
cm
humidity
%
barometer
mb
20260506002505 23 325 6.4 24.1 0.00 0.00 0.00 58 1005.1
20260506002005 23 320 8.0 24.1 0.00 0.00 0.00 58 1005.1
20260506001503 23 337 8.0 20.9 0.00 0.00 0.00 58 1004.9
20260506001003 24 328 12.9 22.5 0.00 0.00 0.00 57 1005.0
20260506000504 25 339 9.7 22.5 0.00 0.00 0.00 57 1004.9
20260506000006 25 1 9.7 24.1 0.00 0.00 0.00 57 1004.6
20260505235502 25 332 6.4 24.1 0.00 0.00 0.00 56 1004.8
20260505235004 25 340 6.4 24.1 0.00 0.00 0.00 56 1004.5
20260505234502 26 351 8.0 20.9 0.00 0.00 0.00 56 1004.6
20260505234001 26 325 8.0 17.7 0.00 0.00 0.00 55 1004.4
20260505233133 27 329 4.8 25.7 0.00 0.00 0.00 54 1004.4
20260505232600 27 333 11.3 25.7 0.00 0.00 0.00 53 1004.3
20260505232100 27 354 11.3 29.0 0.00 0.00 0.00 53 1004.2
20260505231600 28 314 12.9 29.0 0.00 0.00 0.00 51 1004.1
20260505231059 28 315 9.7 25.7 0.00 0.00 0.00 50 1003.9
20260505230559 28 316 8.0 20.9 0.00 0.00 0.00 47 1003.8
20260505230101 28 312 8.0 17.7 0.00 0.00 0.00 46 1003.6
20260505225601 28 294 6.4 22.5 0.00 0.00 0.00 45 1003.3
20260505225101 29 337 9.7 24.1 0.00 0.00 0.00 44 1003.6
20260505224559 29 337 12.9 24.1 0.00 0.00 0.00 44 1003.6
20260505224103 30 308 11.3 19.3 0.00 0.00 0.00 43 1003.6
20260505223558 30 321 8.0 22.5 0.00 0.00 0.00 42 1003.3
20260505223100 31 318 6.4 22.5 0.00 0.00 0.00 43 1003.0
20260505222558 31 324 11.3 22.5 0.00 0.00 0.00 42 1002.9
20260505222057 32 289 4.8 12.9 0.00 0.00 0.00 48 1002.7
20260505221602 31 281 4.8 16.1 0.00 0.00 0.00 49 1002.7
20260505221058 31 265 6.4 16.1 0.00 0.00 0.00 49 1002.6
20260505220555 31 286 8.0 14.5 0.00 0.00 0.00 48 1002.6
20260505220054 31 210 1.6 14.5 0.00 0.00 0.00 50 1002.8
20260505215554 31 212 1.6 16.1 0.00 0.00 0.00 49 1002.9
20260505215054 31 251 3.2 16.1 0.00 0.00 0.00 49 1003.0
20260505214554 31 278 0.0 14.5 0.00 0.00 0.00 49 1002.9
20260505214054 31 272 4.8 16.1 0.00 0.00 0.00 49 1003.0
20260505213553 31 252 6.4 20.9 0.00 0.00 0.00 50 1002.8
20260505213057 31 215 8.0 20.9 0.00 0.00 0.00 50 1003.1
20260505212552 31 220 1.6 16.1 0.00 0.00 0.00 50 1003.0
20260505212052 31 222 4.8 17.7 0.00 0.00 0.00 48 1003.1
20260505211552 31 224 3.2 14.5 0.00 0.00 0.00 50 1003.2
20260505211051 31 254 3.2 16.1 0.00 0.00 0.00 51 1003.3
20260505210551 31 231 4.8 20.9 0.00 0.00 0.00 50 1003.3
20260505210051 31 214 8.0 20.9 0.00 0.00 0.00 49 1003.4
20260505205551 31 229 0.0 16.1 0.00 0.00 0.00 49 1003.3
20260505205053 31 236 4.8 16.1 0.00 0.00 0.00 49 1003.4
20260505204550 31 230 3.2 12.9 0.00 0.00 0.00 49 1003.5
20260505204048 31 231 3.2 12.9 0.00 0.00 0.00 50 1003.6
20260505203548 31 264 4.8 14.5 0.00 0.00 0.00 49 1003.7
20260505203051 31 263 4.8 20.9 0.00 0.00 0.00 51 1004.1
20260505202546 31 275 9.7 20.9 0.00 0.00 0.00 50 1004.1
20260505202044 31 210 4.8 19.3 0.00 0.00 0.00 51 1004.0
20260505201546 31 208 3.2 19.3 0.00 0.00 0.00 51 1004.0
20260505201043 31 224 3.2 19.3 0.00 0.00 0.00 54 1004.0
20260505200542 30 214 3.2 19.3 0.00 0.00 0.00 54 1004.0
20260505200040 30 235 8.0 20.9 0.00 0.00 0.00 54 1004.1
20260505195540 30 241 8.0 20.9 0.00 0.00 0.00 54 1004.0
20260505195039 30 225 9.7 20.9 0.00 0.00 0.00 53 1004.0
20260505194547 30 185 6.4 20.9 0.00 0.00 0.00 54 1004.0
20260505194043 30 231 3.2 19.3 0.00 0.00 0.00 55 1004.2
20260505193538 30 206 6.4 19.3 0.00 0.00 0.00 54 1004.2
20260505193057 30 233 8.0 19.3 0.00 0.00 0.00 54 1004.1
20260505192536 30 197 8.0 22.5 0.00 0.00 0.00 55 1004.0
20260505192034 30 200 4.8 22.5 0.00 0.00 0.00 55 1004.1
20260505191539 29 202 4.8 17.7 0.00 0.00 0.00 56 1004.1
20260505191032 29 225 4.8 16.1 0.00 0.00 0.00 57 1004.2
20260505190534 28 195 4.8 22.5 0.00 0.00 0.00 56 1004.1
20260505190037 28 197 6.4 22.5 0.00 0.00 0.00 56 1004.2
20260505185528 28 235 3.2 17.7 0.00 0.00 0.00 57 1004.2
20260505185029 28 185 6.4 20.9 0.00 0.00 0.00 56 1004.2
20260505184531 28 165 4.8 14.5 0.00 0.00 0.00 57 1004.3
20260505184027 28 195 3.2 19.3 0.00 0.00 0.00 57 1004.3
20260505183525 28 234 6.4 19.3 0.00 0.00 0.00 57 1004.4
20260505183027 28 185 4.8 19.3 0.00 0.00 0.00 57 1004.3
20260505182523 28 185 3.2 17.7 0.00 0.00 0.00 57 1004.3
20260505182023 27 166 6.4 20.9 0.00 0.00 0.00 57 1004.4
20260505181523 27 254 9.7 20.9 0.00 0.00 0.00 57 1004.4
20260505181022 27 250 8.0 20.9 0.00 0.00 0.00 57 1004.4
20260505180521 28 180 6.4 20.9 0.00 0.00 0.00 57 1004.5
20260505180030 27 220 8.0 22.5 0.00 0.00 0.00 57 1004.3
20260505175521 27 195 8.0 24.1 0.00 0.00 0.00 57 1004.4
20260505175018 27 185 9.7 25.7 0.00 0.00 0.00 57 1004.3
20260505174518 27 161 6.4 25.7 0.00 0.00 0.00 58 1004.4
20260505174016 27 214 4.8 32.2 0.00 0.00 0.00 58 1004.4
20260505173515 27 199 6.4 22.5 0.00 0.00 0.00 57 1004.4
20260505173015 27 195 9.7 22.5 0.00 0.00 0.00 58 1004.4
20260505172514 26 198 8.0 24.1 0.00 0.00 0.00 58 1004.4
20260505172012 26 206 8.0 24.1 0.00 0.00 0.00 58 1004.4
20260505171512 26 231 4.8 25.7 0.00 0.00 0.00 58 1004.4
20260505171013 26 191 9.7 27.4 0.00 0.00 0.00 57 1004.3
20260505170510 26 196 9.7 29.0 0.00 0.00 0.00 57 1004.7
20260505170016 26 170 9.7 29.0 0.00 0.00 0.00 57 1004.7
20260505165509 26 226 4.8 24.1 0.00 0.00 0.00 58 1004.7
20260505165008 26 175 8.0 24.1 0.00 0.00 0.00 57 1004.7
20260505164507 26 125 8.0 20.9 0.00 0.00 0.00 58 1004.6
20260505164006 26 215 6.4 20.9 0.00 0.00 0.00 58 1004.7
20260505163506 25 206 4.8 19.3 0.00 0.00 0.00 58 1004.6
20260505163004 25 200 4.8 27.4 0.00 0.00 0.00 58 1004.7
20260505162504 25 217 4.8 27.4 0.00 0.00 0.00 58 1004.6
20260505162003 25 203 6.4 35.4 0.00 0.00 0.00 57 1004.5
20260505161503 25 194 11.3 35.4 0.00 0.00 0.00 58 1004.4
20260505161002 25 251 4.8 29.0 0.00 0.00 0.00 58 1004.5
20260505160502 25 217 6.4 22.5 0.00 0.00 0.00 57 1004.4
20260505153103 24 209 11.3 29.0 0.00 0.00 0.00 58 1003.9
20260505152554 24 175 6.4 29.0 0.00 0.00 0.00 58 1004.0
20260505152053 24 204 6.4 24.1 0.00 0.00 0.00 58 1004.1
20260505151552 24 205 6.4 25.7 0.00 0.00 0.00 58 1004.1
20260505151055 24 240 11.3 25.7 0.00 0.00 0.00 58 1004.3
20260505150552 24 195 8.0 25.7 0.00 0.00 0.00 58 1004.3
20260505140537 22 195 8.0 25.7 0.00 0.00 0.00 61 1004.3
20260505125028 22 201 6.4 25.7 0.00 0.00 0.00 62 1004.2
20260505124528 22 185 6.4 25.7 0.00 0.00 0.00 62 1004.0
20260505124028 22 195 6.4 22.5 0.00 0.00 0.00 62 1003.9
20260505123531 22 171 6.4 30.6 0.00 0.00 0.00 61 1003.8
20260505123026 22 204 6.4 30.6 0.00 0.00 0.00 61 1003.6
20260505122526 22 201 6.4 22.5 0.00 0.00 0.00 61 1003.7
20260505122025 22 143 9.7 22.5 0.00 0.00 0.00 62 1003.6
20260505121525 22 175 4.8 24.1 0.00 0.00 0.00 62 1003.7
20260505121024 22 226 8.0 24.1 0.00 0.00 0.00 62 1003.7
20260505120524 22 235 6.4 25.7 0.00 0.00 0.00 62 1003.6
20260505120035 22 180 9.7 25.7 0.00 0.00 0.00 62 1003.5
20260505115522 22 180 4.8 24.1 0.00 0.00 0.00 62 1003.5
20260505115021 22 156 9.7 24.1 0.00 0.00 0.00 62 1003.7
20260505114521 22 211 6.4 19.3 0.00 0.00 0.00 62 1003.6
20260505114021 21 175 8.0 22.5 0.00 0.00 0.00 62 1003.5
20260505113521 21 199 6.4 30.6 0.00 0.00 0.00 62 1003.4
20260505113020 21 196 9.7 30.6 0.00 0.00 0.00 62 1003.5
20260505112522 21 166 4.8 29.0 0.00 0.00 0.00 63 1003.3
20260505112020 21 165 11.3 25.7 0.00 0.00 0.00 63 1003.3
20260505111529 21 228 6.4 20.9 0.00 0.00 0.00 63 1003.4
20260505111121 21 199 4.8 20.9 0.00 0.00 0.00 63 1003.3
20260505110522 21 216 4.8 27.4 0.00 0.00 0.00 63 1003.3
20260505102017 22 210 4.8 22.5 0.00 0.00 0.00 62 1003.4
20260505101517 21 166 9.7 27.4 0.00 0.00 0.00 62 1003.3
20260505101018 21 216 12.9 27.4 0.00 0.00 0.00 62 1003.4
20260505100516 21 197 8.0 27.4 0.00 0.00 0.00 62 1003.4
20260505100020 21 153 6.4 22.5 0.00 0.00 0.00 62 1003.4
20260505095515 21 175 8.0 22.5 0.00 0.00 0.00 62 1003.4
20260505095016 21 195 6.4 22.5 0.00 0.00 0.00 62 1003.4
20260505094517 21 201 8.0 25.7 0.00 0.00 0.00 62 1003.4
20260505094014 21 204 8.0 25.7 0.00 0.00 0.00 63 1003.6
20260505093513 21 189 6.4 24.1 0.00 0.00 0.00 63 1003.5
20260505093013 21 200 9.7 25.7 0.00 0.00 0.00 63 1003.6
20260505092513 21 191 11.3 25.7 0.00 0.00 0.00 63 1003.7
20260505092011 21 185 11.3 32.2 0.00 0.00 0.00 63 1003.7
20260505091511 21 180 11.3 32.2 0.00 0.00 0.00 63 1003.7
20260505091009 21 189 8.0 22.5 0.00 0.00 0.00 63 1003.8
20260505090510 21 175 8.0 24.1 0.00 0.00 0.00 63 1003.8
20260505090008 21 197 9.7 27.4 0.00 0.00 0.00 63 1003.7
20260505085507 21 164 6.4 27.4 0.00 0.00 0.00 63 1003.8
20260505085006 21 234 8.0 25.7 0.00 0.00 0.00 63 1003.7
20260505084511 21 180 3.2 22.5 0.00 0.00 0.00 64 1003.7
20260505084006 21 180 8.0 22.5 0.00 0.00 0.00 64 1003.7
20260505083504 21 191 6.4 22.5 0.00 0.00 0.00 64 1003.8
20260505083008 21 197 9.7 22.5 0.00 0.00 0.00 63 1003.9
20260505082506 21 185 8.0 27.4 0.00 0.00 0.00 63 1003.8
20260505082002 21 197 4.8 25.7 0.00 0.00 0.00 63 1003.8
20260505081502 21 206 6.4 19.3 0.00 0.00 0.00 64 1003.8
20260505081004 21 185 8.0 19.3 0.00 0.00 0.00 63 1003.8
20260505080603 21 189 4.8 17.7 0.00 0.00 0.00 63 1003.9
20260505080105 21 194 4.8 22.5 0.00 0.00 0.00 63 1003.9
20260505075558 21 185 8.0 22.5 0.00 0.00 0.00 63 1004.0
20260505075057 21 185 9.7 22.5 0.00 0.00 0.00 64 1004.0
20260505074557 22 190 4.8 20.9 0.00 0.00 0.00 64 1004.2
20260505074056 22 185 8.0 22.5 0.00 0.00 0.00 64 1004.3
20260505073555 22 194 4.8 22.5 0.00 0.00 0.00 63 1004.4
20260505073100 22 170 6.4 20.9 0.00 0.00 0.00 63 1004.4
20260505072556 22 197 6.4 20.9 0.00 0.00 0.00 63 1004.4
20260505072053 22 212 6.4 20.9 0.00 0.00 0.00 63 1004.5
20260505071612 22 199 4.8 19.3 0.00 0.00 0.00 63 1004.5
20260505071054 22 185 6.4 25.7 0.00 0.00 0.00 63 1004.6
20260505070549 22 224 6.4 25.7 0.00 0.00 0.00 63 1004.7
20260505070053 22 192 6.4 20.9 0.00 0.00 0.00 63 1004.7
20260505065548 22 185 3.2 22.5 0.00 0.00 0.00 63 1004.7
20260505065047 22 185 6.4 20.9 0.00 0.00 0.00 63 1004.8
20260505064547 22 189 6.4 19.3 0.00 0.00 0.00 63 1004.9
20260505064046 22 180 8.0 24.1 0.00 0.00 0.00 62 1004.8
20260505063545 22 200 11.3 22.5 0.00 0.00 0.00 62 1004.9
20260505063051 22 175 6.4 22.5 0.00 0.00 0.00 62 1004.8
20260505062544 22 161 4.8 24.1 0.00 0.00 0.00 62 1004.9
20260505062043 22 175 6.4 24.1 0.00 0.00 0.00 62 1005.0
20260505061542 22 160 4.8 24.1 0.00 0.00 0.00 62 1005.0
20260505061041 22 198 6.4 27.4 0.00 0.00 0.00 62 1004.9
20260505060542 22 202 9.7 27.4 0.00 0.00 0.00 62 1004.8
20260505060056 22 191 8.0 24.1 0.00 0.00 0.00 62 1004.8
20260505055540 22 171 9.7 24.1 0.00 0.00 0.00 62 1004.8
20260505055142 22 180 6.4 22.5 0.00 0.00 0.00 62 1005.0
20260505054539 22 185 6.4 27.4 0.00 0.00 0.00 61 1005.1
20260505054040 22 175 9.7 27.4 0.00 0.00 0.00 61 1005.1
20260505053537 22 199 8.0 27.4 0.00 0.00 0.00 61 1005.1
20260505053038 22 175 8.0 27.4 0.00 0.00 0.00 61 1005.2
20260505052535 22 193 6.4 25.7 0.00 0.00 0.00 61 1005.4
20260505052036 22 194 9.7 25.7 0.00 0.00 0.00 61 1005.5
20260505051532 22 196 4.8 32.2 0.00 0.00 0.00 61 1005.5
20260505051030 22 194 4.8 20.9 0.00 0.00 0.00 61 1005.5
20260505050528 23 185 6.4 24.1 0.00 0.00 0.00 60 1005.6
20260505041524 23 180 9.7 27.4 0.00 0.00 0.00 60 1005.7
20260505041024 23 168 8.0 22.5 0.00 0.00 0.00 60 1005.7
20260505040530 23 185 6.4 25.7 0.00 0.00 0.00 60 1005.7
20260505040025 23 198 4.8 25.7 0.00 0.00 0.00 60 1005.8
20260505035525 23 175 3.2 17.7 0.00 0.00 0.00 60 1005.7
20260505035023 23 180 6.4 20.9 0.00 0.00 0.00 60 1005.6
20260505034523 23 175 4.8 25.7 0.00 0.00 0.00 59 1005.7
20260505034027 23 200 6.4 25.7 0.00 0.00 0.00 59 1005.6
20260505033523 23 175 3.2 19.3 0.00 0.00 0.00 59 1005.7
20260505033023 23 196 6.4 24.1 0.00 0.00 0.00 59 1005.7
20260505032522 23 162 8.0 24.1 0.00 0.00 0.00 59 1005.8
20260505032023 23 185 4.8 24.1 0.00 0.00 0.00 59 1005.8
20260505031522 23 200 4.8 29.0 0.00 0.00 0.00 59 1005.7
20260505031021 23 185 6.4 29.0 0.00 0.00 0.00 59 1005.8
20260505030521 23 180 3.2 19.3 0.00 0.00 0.00 59 1005.8
20260505030021 23 175 4.8 19.3 0.00 0.00 0.00 59 1005.7
20260505025622 23 170 3.2 16.1 0.00 0.00 0.00 59 1005.9
20260505025020 23 175 3.2 20.9 0.00 0.00 0.00 59 1005.9
20260505024520 23 185 4.8 20.9 0.00 0.00 0.00 59 1005.8
20260505024020 23 175 6.4 20.9 0.00 0.00 0.00 59 1005.9
20260505023519 23 222 3.2 17.7 0.00 0.00 0.00 59 1005.8
20260505023021 23 175 6.4 17.7 0.00 0.00 0.00 58 1005.9
20260505022519 23 185 4.8 17.7 0.00 0.00 0.00 58 1005.8
20260505022019 23 209 1.6 12.9 0.00 0.00 0.00 58 1005.9
20260505021519 23 206 4.8 19.3 0.00 0.00 0.00 58 1005.7
20260505021019 23 185 4.8 24.1 0.00 0.00 0.00 58 1005.8
20260505020518 23 192 3.2 24.1 0.00 0.00 0.00 58 1005.7
20260505020025 23 208 4.8 29.0 0.00 0.00 0.00 58 1005.6
20260505015518 24 175 8.0 20.9 0.00 0.00 0.00 58 1005.6
20260505015018 24 166 4.8 17.7 0.00 0.00 0.00 58 1005.6
20260505014530 24 164 4.8 22.5 0.00 0.00 0.00 58 1005.7
20260505014017 24 185 11.3 24.1 0.00 0.00 0.00 58 1005.7
20260505013518 24 198 4.8 24.1 0.00 0.00 0.00 57 1005.7
20260505013021 24 192 4.8 22.5 0.00 0.00 0.00 57 1005.7
20260505012520 24 180 4.8 22.5 0.00 0.00 0.00 57 1005.7
20260505012016 24 175 6.4 22.5 0.00 0.00 0.00 57 1005.7
20260505011515 24 197 3.2 32.2 0.00 0.00 0.00 57 1005.7
20260505011017 24 175 8.0 32.2 0.00 0.00 0.00 57 1005.6
20260505010515 24 192 3.2 17.7 0.00 0.00 0.00 56 1005.6
20260505010015 24 193 3.2 24.1 0.00 0.00 0.00 56 1005.6
20260505005515 25 201 4.8 24.1 0.00 0.00 0.00 56 1005.5
20260505005015 25 185 8.0 24.1 0.00 0.00 0.00 56 1005.6
20260505004515 25 185 6.4 25.7 0.00 0.00 0.00 55 1005.6
20260505004015 25 242 6.4 27.4 0.00 0.00 0.00 55 1005.4
20260505003514 25 195 4.8 27.4 0.00 0.00 0.00 55 1005.7
20260505003018 25 195 12.9 27.4 0.00 0.00 0.00 55 1005.7